Home   Weather   Basel   Past weeks

Flag for Switzerland Past Weather in Basel, Basel-Stadt, Switzerland — Yesterday and Last 2 Weeks

40 °F

Light snow. Dense fog.

Feels Like: 40 °F
Forecast: 39 / 58 °F
Wind: 1 mph from Southwest

Location: Bale-Mulhouse

Current Time: Oct 28, 2016 at 2:54:28 AM

Latest Report: Oct 28, 2016 at 2:00 AM

Visibility: 0 mi

Pressure: 30.58 "Hg

Humidity: 99%

Dew Point: 40 °F

Location of BaselLocation

Past Weather in Basel — Graph


Basel Temperature Yesterday

Maximum temperature yesterday: 55 °F (at 4:00 PM)
Minimum temperature yesterday: 40 °F (at 11:00 PM)
Average temperature yesterday: 47 °F

High & Low Weather Summary for the Past Weeks

High66 °F (Oct 16, 3:00 PM)99% (Oct 13, 9:00 AM)30.58 "Hg (Oct 13, 9:00 AM)
Low31 °F (Oct 13, 2:00 AM)49% (Oct 22, 4:00 PM)29.64 "Hg (Oct 14, 6:00 PM)
Average50 °F86%30.09 "Hg
* Reported Oct 13 1:00 AM — Oct 28 1:00 AM, Basel, Weather by CustomWeather, © 2016

Note: Actual official high and low records may vary slightly from our data, if they occured in-between our weather recording intervals... More about our weather records


Basel Weather History for the Previous 24 Hours

Scroll right to see more
Time TempWeatherWind HumidityBarometerVisibility
1:00 AM
Fri, Oct 28
38 °FHeavy rain. Passing clouds.3 mph98%30.58 "Hg1 mi
12:00 AM38 °FFog.2 mph98%30.58 "Hg1 mi
11:00 PM
Thu, Oct 27
40 °FFog.2 mph97%30.58 "Hg1 mi
10:00 PM41 °FFog.2 mph96%30.58 "Hg2 mi
9:00 PM43 °FFog.1 mph96%30.58 "Hg2 mi
8:00 PM45 °FClear.3 mph94%30.57 "Hg4 mi
7:00 PM47 °FPassing clouds.2 mph91%30.55 "Hg5 mi
6:00 PM52 °FPassing clouds.5 mph77%30.53 "Hg9 mi
5:00 PM55 °FPassing clouds.6 mph71%30.53 "Hg9 mi
4:00 PM55 °FPassing clouds.5 mph72%30.53 "Hg9 mi
3:00 PM54 °FPassing clouds.5 mph79%30.53 "Hg9 mi
2:00 PM50 °FLow clouds.5 mph87%30.56 "Hg4 mi
1:00 PM49 °FFog.5 mph93%30.58 "Hg1 mi
12:00 PM47 °FFog.3 mph97%30.58 "Hg1 mi
11:00 AM46 °FFog.3 mph99%30.58 "Hg1 mi
10:00 AM45 °FFog.3 mph99%30.58 "Hg0 mi
9:00 AM45 °FFog.5 mph98%30.55 "Hg0 mi
8:00 AM45 °FLight rain. Dense fog.2 mph99%30.52 "Hg0 mi
7:00 AM46 °FFog.5 mph99%30.51 "Hg0 mi
6:00 AM46 °FFog.3 mph98%30.50 "Hg0 mi
5:00 AM46 °FFog.6 mph97%30.49 "Hg1 mi
4:00 AM47 °FLow clouds.3 mph94%30.48 "Hg4 mi
3:00 AM47 °FLow clouds.6 mph93%30.48 "Hg4 mi
2:00 AM48 °FPassing clouds.6 mph93%30.47 "Hg4 mi
Weather by CustomWeather, © 2016

See weather overviewHow to use our weather pages